RYR6673 LPMA-EGPH

Flight info

Callsign RYR6673
Flight time N/A
Altitude 34000
Route DEGUN DCT MANOX/M074F340 T13 NILAV/M074F350 T13 OMOKO DCT GUNSO/N0422F350 DCT KURUM DCT ROTEV DCT GOTNA DCT BLACA/N0355F250 P600 TUNSO
Aircraft B738/M-SDE2E3FGHIRWXY/LB1

Departure

Time N/A
Airport Cristiano Ronaldo International Airport (LPMA)

Arrival

Time 2026-04-21 10:13
Airport Edinburgh Airport (EGPH)
Time Latitude Longitude Altitude Speed Heading
2026-04-21 09:11 51.08957 -9.83666 35267 ft 439 kts 29°
2026-04-21 09:12 51.14125 -9.78502 35259 ft 439 kts 29°
2026-04-21 09:12 51.19257 -9.73361 35258 ft 439 kts 29°
2026-04-21 09:13 51.24417 -9.68178 35265 ft 438 kts 29°
2026-04-21 09:13 51.29573 -9.62986 35258 ft 438 kts 29°
2026-04-21 09:14 51.34726 -9.57783 35270 ft 438 kts 29°
2026-04-21 09:14 51.39841 -9.52604 35260 ft 438 kts 29°
2026-04-21 09:15 51.44992 -9.47375 35269 ft 439 kts 29°
2026-04-21 09:15 51.50150 -9.42125 35258 ft 439 kts 29°
2026-04-21 09:16 51.55306 -9.36862 35271 ft 440 kts 29°
2026-04-21 09:16 51.60432 -9.31615 35266 ft 440 kts 29°
2026-04-21 09:17 51.65592 -9.26318 35268 ft 440 kts 29°
2026-04-21 09:17 51.70752 -9.21009 35271 ft 440 kts 29°
2026-04-21 09:18 51.75912 -9.15683 35270 ft 440 kts 29°
2026-04-21 09:18 51.81036 -9.10380 35262 ft 440 kts 29°
2026-04-21 09:19 51.86188 -9.05033 35266 ft 440 kts 29°
2026-04-21 09:19 51.91333 -8.99679 35265 ft 439 kts 29°
2026-04-21 09:20 51.96466 -8.94324 35265 ft 439 kts 29°
2026-04-21 09:20 52.01590 -8.88961 35279 ft 438 kts 30°
2026-04-21 09:21 52.06671 -8.83630 35262 ft 438 kts 30°
2026-04-21 09:21 52.11782 -8.78253 35280 ft 437 kts 30°
2026-04-21 09:22 52.16882 -8.72872 35283 ft 436 kts 30°
2026-04-21 09:22 52.21974 -8.67484 35289 ft 436 kts 30°
2026-04-21 09:23 52.26790 -8.61527 35290 ft 439 kts 37°
2026-04-21 09:23 52.31434 -8.55039 35289 ft 439 kts 37°
2026-04-21 09:24 52.36076 -8.48526 35292 ft 439 kts 37°
2026-04-21 09:24 52.40736 -8.42054 35296 ft 440 kts 37°
2026-04-21 09:25 52.45407 -8.35597 35310 ft 439 kts 37°
2026-04-21 09:25 52.50047 -8.29176 35316 ft 439 kts 37°
2026-04-21 09:26 52.54716 -8.22698 35312 ft 440 kts 37°
2026-04-21 09:26 52.59383 -8.16200 35318 ft 439 kts 37°
2026-04-21 09:27 52.64042 -8.09691 35322 ft 439 kts 37°
2026-04-21 09:27 52.68695 -8.03175 35321 ft 439 kts 37°
2026-04-21 09:28 52.73315 -7.96684 35323 ft 439 kts 37°
2026-04-21 09:28 52.77961 -7.90139 35337 ft 439 kts 37°
2026-04-21 09:29 52.82599 -7.83586 35340 ft 439 kts 37°
2026-04-21 09:29 52.87232 -7.77022 35342 ft 438 kts 38°
2026-04-21 09:30 52.91859 -7.70448 35344 ft 438 kts 38°
2026-04-21 09:30 52.96447 -7.63909 35346 ft 438 kts 38°
2026-04-21 09:31 53.01057 -7.57319 35346 ft 437 kts 38°
2026-04-21 09:31 53.05663 -7.50715 35345 ft 437 kts 38°
2026-04-21 09:32 53.10262 -7.44105 35343 ft 437 kts 38°
2026-04-21 09:32 53.14818 -7.37534 35362 ft 436 kts 38°
2026-04-21 09:33 53.19401 -7.30904 35361 ft 436 kts 38°
2026-04-21 09:33 53.23978 -7.24265 35365 ft 436 kts 38°
2026-04-21 09:34 53.28551 -7.17611 35357 ft 436 kts 38°
2026-04-21 09:34 53.33091 -7.10988 35372 ft 436 kts 39°
2026-04-21 09:35 53.37653 -7.04314 35380 ft 435 kts 39°
2026-04-21 09:35 53.42211 -6.97623 35386 ft 435 kts 39°
2026-04-21 09:36 53.46762 -6.90923 35384 ft 436 kts 39°
2026-04-21 09:36 53.51280 -6.84251 35378 ft 436 kts 39°
2026-04-21 09:37 53.55826 -6.77520 35377 ft 436 kts 39°
2026-04-21 09:37 53.60370 -6.70772 35386 ft 435 kts 39°
2026-04-21 09:38 53.64901 -6.64020 35388 ft 435 kts 39°
2026-04-21 09:38 53.69400 -6.57298 35385 ft 435 kts 39°
2026-04-21 09:39 53.73921 -6.50523 35399 ft 434 kts 39°
2026-04-21 09:39 53.78434 -6.43740 35408 ft 434 kts 40°
2026-04-21 09:40 53.82933 -6.36957 35404 ft 434 kts 40°
2026-04-21 09:40 53.87404 -6.30192 35405 ft 433 kts 40°
2026-04-21 09:41 53.91895 -6.23383 35412 ft 433 kts 40°
2026-04-21 09:41 53.96374 -6.16568 35424 ft 432 kts 40°
2026-04-21 09:42 54.00845 -6.09747 35435 ft 431 kts 40°
2026-04-21 09:42 54.05753 -6.04049 35447 ft 427 kts 24°
2026-04-21 09:43 54.11090 -5.99765 35447 ft 427 kts 23°
2026-04-21 09:43 54.16477 -5.95467 35455 ft 428 kts 23°
2026-04-21 09:44 54.21854 -5.91092 35460 ft 428 kts 24°
2026-04-21 09:44 54.27228 -5.86668 35463 ft 429 kts 24°
2026-04-21 09:45 54.29921 -5.84443 35338 ft 433 kts 24°
2026-04-21 09:45 54.32649 -5.82189 34809 ft 450 kts 24°
2026-04-21 09:45 54.35502 -5.79829 34129 ft 456 kts 24°
2026-04-21 09:45 54.38361 -5.77456 33427 ft 456 kts 24°
2026-04-21 09:46 54.41219 -5.75079 32714 ft 456 kts 24°
2026-04-21 09:46 54.44063 -5.72711 32186 ft 453 kts 24°
2026-04-21 09:46 54.46884 -5.70358 31639 ft 449 kts 24°
2026-04-21 09:46 54.49684 -5.68020 31105 ft 445 kts 24°
2026-04-21 09:47 54.52460 -5.65701 30567 ft 442 kts 24°
2026-04-21 09:47 54.55212 -5.63398 30036 ft 438 kts 24°
2026-04-21 09:47 54.57900 -5.61136 29470 ft 434 kts 25°
2026-04-21 09:47 54.60483 -5.58451 28901 ft 433 kts 36°
2026-04-21 09:48 54.62780 -5.55131 28380 ft 429 kts 40°
2026-04-21 09:48 54.64994 -5.51711 27815 ft 426 kts 41°
2026-04-21 09:48 54.67182 -5.48300 27288 ft 421 kts 41°
2026-04-21 09:48 54.69354 -5.44934 26756 ft 417 kts 41°
2026-04-21 09:49 54.71513 -5.41612 26230 ft 413 kts 41°
2026-04-21 09:49 54.73655 -5.38335 25703 ft 409 kts 41°
2026-04-21 09:49 54.75781 -5.35088 25175 ft 406 kts 42°
2026-04-21 09:49 54.77864 -5.31909 24665 ft 403 kts 42°
2026-04-21 09:50 54.79953 -5.28715 24157 ft 399 kts 42°
2026-04-21 09:50 54.80654 -5.27643 23984 ft 397 kts 43°
2026-04-21 09:50 54.86089 -5.19308 22659 ft 386 kts 43°
2026-04-21 09:51 54.88131 -5.16312 22156 ft 384 kts 39°
2026-04-21 09:51 54.90406 -5.13901 21646 ft 383 kts 29°
2026-04-21 09:51 54.92786 -5.11869 21163 ft 380 kts 28°
2026-04-21 09:51 54.95158 -5.09883 20679 ft 376 kts 29°
2026-04-21 09:52 54.97471 -5.07931 20213 ft 373 kts 29°
2026-04-21 09:52 54.99791 -5.05947 19738 ft 370 kts 30°
2026-04-21 09:52 55.02082 -5.03967 19283 ft 366 kts 30°
2026-04-21 09:52 55.04349 -5.01997 18827 ft 363 kts 30°
2026-04-21 09:53 55.06597 -5.00039 18369 ft 359 kts 30°
2026-04-21 09:53 55.08808 -4.98069 17914 ft 354 kts 34°
2026-04-21 09:53 55.10706 -4.95450 17483 ft 343 kts 51°
2026-04-21 09:53 55.12088 -4.92181 17281 ft 329 kts 64°
2026-04-21 09:54 55.13069 -4.88627 17082 ft 323 kts 69°
2026-04-21 09:54 55.13956 -4.85052 16893 ft 328 kts 70°
2026-04-21 09:54 55.14852 -4.81352 16684 ft 332 kts 70°
2026-04-21 09:54 55.15750 -4.77643 16468 ft 330 kts 70°
2026-04-21 09:55 55.16645 -4.73965 16251 ft 327 kts 70°
2026-04-21 09:55 55.17537 -4.70315 16049 ft 325 kts 70°
2026-04-21 09:55 55.18426 -4.66689 15846 ft 324 kts 70°
2026-04-21 09:55 55.19314 -4.63071 15640 ft 323 kts 70°
2026-04-21 09:56 55.20198 -4.59471 15438 ft 322 kts 70°
2026-04-21 09:56 55.21082 -4.55873 15237 ft 322 kts 70°
2026-04-21 09:56 55.21949 -4.52329 15034 ft 321 kts 70°
2026-04-21 09:56 55.22828 -4.48746 14834 ft 320 kts 70°
2026-04-21 09:57 55.23710 -4.45165 14634 ft 319 kts 68°
2026-04-21 09:57 55.24906 -4.41895 14349 ft 322 kts 53°
2026-04-21 09:57 55.26507 -4.39156 13959 ft 324 kts 43°
2026-04-21 09:57 55.28323 -4.36791 13537 ft 325 kts 40°
2026-04-21 09:58 55.30158 -4.34497 13112 ft 324 kts 40°
2026-04-21 09:58 55.31993 -4.32222 12713 ft 321 kts 40°
2026-04-21 09:58 55.33783 -4.29995 12318 ft 319 kts 40°
2026-04-21 09:58 55.35586 -4.27739 11930 ft 317 kts 40°
2026-04-21 09:59 55.37368 -4.25498 11577 ft 314 kts 40°
2026-04-21 09:59 55.39124 -4.23280 11304 ft 308 kts 40°
2026-04-21 09:59 55.40847 -4.21100 11044 ft 302 kts 40°
2026-04-21 09:59 55.42539 -4.18953 10788 ft 297 kts 40°
2026-04-21 10:00 55.44202 -4.16838 10537 ft 293 kts 40°
2026-04-21 10:00 55.45824 -4.14780 10498 ft 281 kts 40°
2026-04-21 10:00 55.47372 -4.12809 10475 ft 268 kts 40°
2026-04-21 10:00 55.48905 -4.10847 9962 ft 276 kts 40°
2026-04-21 10:01 55.50434 -4.08886 9647 ft 275 kts 40°
2026-04-21 10:01 55.51970 -4.06917 9409 ft 271 kts 40°
2026-04-21 10:01 55.53487 -4.04972 9179 ft 268 kts 40°
2026-04-21 10:01 55.54986 -4.03053 8948 ft 265 kts 40°
2026-04-21 10:02 55.57928 -3.99279 8515 ft 258 kts 40°
2026-04-21 10:02 55.59371 -3.97424 8300 ft 256 kts 40°
2026-04-21 10:02 55.60803 -3.95584 8087 ft 253 kts 40°
2026-04-21 10:03 55.62196 -3.93785 7884 ft 250 kts 40°
2026-04-21 10:03 55.63595 -3.91978 7672 ft 248 kts 40°
2026-04-21 10:03 55.64984 -3.90186 7466 ft 246 kts 40°
2026-04-21 10:03 55.66360 -3.88407 7262 ft 244 kts 40°
2026-04-21 10:04 55.67728 -3.86633 7061 ft 243 kts 40°
2026-04-21 10:04 55.69101 -3.84855 6868 ft 246 kts 39°
2026-04-21 10:04 55.70491 -3.83056 6657 ft 247 kts 39°
2026-04-21 10:04 55.71861 -3.81283 6396 ft 239 kts 40°
2026-04-21 10:05 55.73177 -3.79580 6156 ft 231 kts 39°
2026-04-21 10:05 55.74453 -3.77929 5984 ft 220 kts 40°
2026-04-21 10:05 55.75625 -3.76408 5900 ft 203 kts 40°
2026-04-21 10:05 55.76748 -3.74963 5600 ft 197 kts 36°
2026-04-21 10:06 55.78081 -3.74395 5121 ft 207 kts 354°
2026-04-21 10:06 55.79420 -3.75229 4888 ft 199 kts 346°
2026-04-21 10:06 55.80705 -3.75783 4765 ft 177 kts
2026-04-21 10:06 55.81714 -3.75011 4738 ft 155 kts 53°
2026-04-21 10:07 55.82392 -3.73502 4564 ft 157 kts 54°
2026-04-21 10:07 55.83078 -3.72003 4353 ft 155 kts 54°
2026-04-21 10:07 55.83708 -3.70498 4142 ft 147 kts 58°
2026-04-21 10:07 55.84255 -3.69039 3954 ft 139 kts 59°
2026-04-21 10:08 55.84756 -3.67617 3787 ft 137 kts 60°
2026-04-21 10:08 55.85257 -3.66153 3608 ft 139 kts 61°
2026-04-21 10:08 55.85757 -3.64675 3418 ft 139 kts 61°
2026-04-21 10:08 55.86251 -3.63213 3239 ft 138 kts 60°
2026-04-21 10:09 55.86744 -3.61747 3052 ft 137 kts 60°
2026-04-21 10:09 55.87232 -3.60291 2866 ft 137 kts 61°
2026-04-21 10:09 55.87720 -3.58843 2694 ft 136 kts 60°
2026-04-21 10:09 55.88208 -3.57394 2502 ft 135 kts 60°
2026-04-21 10:10 55.88684 -3.55977 2336 ft 136 kts 60°
2026-04-21 10:10 55.89172 -3.54531 2151 ft 137 kts 60°
2026-04-21 10:10 55.89651 -3.53101 1986 ft 134 kts 61°
2026-04-21 10:10 55.90124 -3.51695 1800 ft 131 kts 60°
2026-04-21 10:11 55.90587 -3.50318 1624 ft 129 kts 60°
2026-04-21 10:11 55.91050 -3.48946 1454 ft 130 kts 60°
2026-04-21 10:11 55.91512 -3.47594 1311 ft 125 kts 60°
2026-04-21 10:11 55.91947 -3.46258 1115 ft 126 kts 62°
2026-04-21 10:12 55.92400 -3.44922 978 ft 126 kts 59°
2026-04-21 10:12 55.92845 -3.43603 825 ft 124 kts 61°
2026-04-21 10:12 55.93291 -3.42266 648 ft 129 kts 59°
2026-04-21 10:12 55.93774 -3.40882 420 ft 133 kts 59°
2026-04-21 10:13 55.94239 -3.39471 248 ft 130 kts 58°
2026-04-21 10:13 55.94705 -3.38115 118 ft 125 kts 59°
2026-04-21 10:13 55.95077 -3.37021 113 ft 73 kts 59°
2026-04-21 10:13 55.95241 -3.36538 111 ft 20 kts 59°
2026-04-21 10:14 55.95235 -3.36396 111 ft 9 kts 143°
2026-04-21 10:14 55.95194 -3.36351 114 ft 6 kts 148°
2026-04-21 10:14 55.95161 -3.36311 115 ft 6 kts 140°
2026-04-21 10:14 55.95141 -3.36250 112 ft 6 kts 113°
2026-04-21 10:15 55.95130 -3.36199 115 ft 2 kts 110°
2026-04-21 10:15 55.95125 -3.36177 115 ft 2 kts 108°
2026-04-21 10:15 55.95122 -3.36156 115 ft 2 kts 105°
2026-04-21 10:15 55.95115 -3.36107 114 ft 7 kts 104°
2026-04-21 10:16 55.95102 -3.36023 112 ft 5 kts 109°
2026-04-21 10:16 55.95090 -3.35983 115 ft 0 kts 126°
2026-04-21 10:16 55.95085 -3.35969 115 ft 6 kts 118°
2026-04-21 10:16 55.95063 -3.35925 114 ft 3 kts 188°
2026-04-21 10:17 55.95036 -3.35996 113 ft 7 kts 248°
2026-04-21 10:17 55.95023 -3.36057 115 ft 1 kts 249°
2026-04-21 10:17 55.95021 -3.36066 114 ft 0 kts 249°